Regional Weather Roundup
Issued by NWS

Home | Current Version | Previous Version | Graphics & Text | Print | Product List | Glossary On
Versions: 1 2 3 4 5 6 7 8 9 10 11 12 13 14 15 16 17 18 19 20 21 22 23 24 25 26 27 28 29 30 31 32 33 34 35 36 37 38 39 40 41 42 43 44 45 46 47 48 49 50
000
ASUS45 KCYS 020210
RWRWY

WYOMING REGIONAL WEATHER ROUNDUP
NATIONAL WEATHER SERVICE CHEYENNE WY
800 PM MDT FRI AUG 01 2014

NOTE:  "FAIR" INDICATES FEW OR NO CLOUDS BELOW 12,000 FEET
WITH NO SIGNIFICANT WEATHER AND/OR OBSTRUCTIONS TO VISIBILITY.

WYZ001-020300-
YELLOWSTONE NATIONAL PARK

CITY           SKY/WX    TMP DP  RH WIND       PRES   REMARKS
LK YELLOWSTONE   N/A     57  46  66 CALM      30.49S
W YELLOWSTONE  NOT AVBL

$$
WYZ002>013-054>058-071-098>099-020300-
NORTHERN WYOMING

CITY           SKY/WX    TMP DP  RH WIND       PRES   REMARKS
JACKSON        MOCLDY    66  43  42 N9        30.32R
CODY           CLOUDY    68  46  45 SW12G25   30.27S
GREYBULL       CLOUDY    78  47  33 NW16      30.17R
WORLAND        CLOUDY    77  45  32 NW14      30.16R
SHERIDAN       MOCLDY    78  50  37 SW6       30.13R
BUFFALO        MOCLDY    77  40  26 N10       30.22R
GILLETTE       MOCLDY    79  41  25 N10       30.16R
HULETT         FAIR      81  41  24 MISG      30.15
NEWCASTLE      FAIR      79  36  21 CALM      30.15

$$
WYZ014>020-022>026-101>103-020300-
CENTRAL WYOMING

CITY           SKY/WX    TMP DP  RH WIND       PRES   REMARKS
BIG PINEY      PTCLDY    71  39  31 N13       30.33S
PINEDALE       MOCLDY    66  43  42 N6        30.35S
DUBOIS         FAIR      63  41  45 NW3       30.39S
LANDER         MOCLDY    75  41  29 NW15      30.23R
RIVERTON       MOCLDY    76  40  27 N18G24    30.23R
CASPER         PTCLDY    78  35  21 NE10      30.21R
DOUGLAS        CLOUDY    79  38  22 NE7       30.20R

$$
WYZ021-027>030-104>119-020300-
SOUTHERN WYOMING

CITY           SKY/WX    TMP DP  RH WIND       PRES   REMARKS
EVANSTON       PTCLDY    77  32  19 NE7       30.29S
KEMMERER       CLEAR    N/A N/A N/A E3        30.32R
FORT BRIDGER   FAIR      79  31  17 N3        30.30F
ROCK SPRINGS   PTCLDY    77  30  17 E12       30.26S
DIXON          FAIR      78  30  17 NE18      30.25R
RAWLINS        CLEAR     74  31  20 E12       30.29R
SARATOGA       FAIR      72  34  25 SE7       30.31R
LARAMIE        CLEAR     64  41  42 SE9       30.35R
CHEYENNE       CLEAR     70  45  40 S14       30.29R
TORRINGTON     PTCLDY    78  47  33 SE7       30.13S
PINE BLUFFS    FAIR      70  48  46 SE6       30.24S

$$


USA.gov is the U.S. government's official web portal to all federal, state and local government web resources and services.